BRITE-AUSTRIA (39091 NORAD) Tracking and Keplerian Element Data

This shows tracking and keplerian element data for the satellite.

Feedback or suggestion? Click here.




ElementValue
Catalog39091
NameBRITE-AUSTRIA
Epoch Orbit26445
Epoch Day74.89091418
Epoch Year2018
RAAN281.7425
Inclination98.5277
Eccentricity0.0009768
Argument of Perigee217.0628
Mean Anonmoly142.9883
Mean Motion14.35063256
Decay Rate3E-07
L11 39091U 13009F 18074.89091418 .00000030 00000-0 25733-4 0 9992
L22 39091 98.5277 281.7425 0009768 217.0628 142.9883 14.35063256264458

Live tracking and technical data element details for BRITE-AUSTRIA (NORAD 39091). BRITE-AUSTRIA can be tracked NOW for your location showing map with azimuth and elevation plus other details from your city location.

Track the satellite on the map from your city or location and see movement details for azimuth, elevation, latitude, longitude, range, height, and movement on the map or in text.







IsCatalogInMostPopularTable: catalog: 39091, numindb: 86
Update: records affected: 1



GetName: 39091 BRITE-AUSTRIA

Hit Count: updated at: Sat, 15 Dec 2018 14:18:24 GMT